W2CS Westport MA US current weather conditions

sailwx.info

Wind from 194

Air temperature 23.9° C
Dewpoint 18.7° C

Last reported at 2020-Oct-01 14:46 UTC.
Time now 2020-Oct-01 15:39 UTC

Location: N 41°35' W 071°04'.
View on Google Maps.

See reports from other nearby stations

  
Tides and Currents Weather Stations Pressure Air Temp Water Temp Dewpoint Dewpoint Depression Visibility Wind Speed Wind Dir Waves Ship Positions
date/time (UTC)wind fromknots sea level pressurealtimeterstation pressurevisibilityair tempwater tempwave heightnotes
2020-Oct-01 14:46 194 23.9
2020-Oct-01 14:35 128 23.3
2020-Oct-01 14:25 187 23.3
2020-Oct-01 14:15 167 22.8
2020-Oct-01 14:04 250 22.8
2020-Oct-01 13:54 192 22.2
2020-Oct-01 13:43 134 21.7
2020-Oct-01 13:34 133 21.1
2020-Oct-01 13:23 238 20.6
2020-Oct-01 13:14 057 20.0
2020-Oct-01 13:03 056 18.9
2020-Oct-01 12:54 161 17.8
2020-Oct-01 12:43 227 16.7
2020-Oct-01 12:33 227 15.6
2020-Oct-01 12:23 257 15.0
2020-Oct-01 12:13 257 14.4
2020-Oct-01 12:03 257 14.4
2020-Oct-01 11:53 257 13.9
2020-Oct-01 11:43 257 13.9
2020-Oct-01 11:33 257 13.3
2020-Oct-01 11:23 257 13.3
2020-Oct-01 11:13 257 13.3
2020-Oct-01 11:03 257 13.3
2020-Oct-01 10:53 257 13.3
2020-Oct-01 10:42 257 13.3
2020-Oct-01 10:32 257 13.9
2020-Oct-01 10:21 257 13.9
2020-Oct-01 10:11 257 13.9
2020-Oct-01 10:01 257 13.9
2020-Oct-01 09:51 257 13.9
2020-Oct-01 09:41 257 13.9
2020-Oct-01 09:30 257 13.9
2020-Oct-01 09:21 257 13.9
2020-Oct-01 09:11 257 13.9
2020-Oct-01 09:01 257 13.9
2020-Oct-01 08:52 257 13.9
2020-Oct-01 08:42 257 13.9
2020-Oct-01 08:31 257 13.9
2020-Oct-01 08:21 257 14.4
2020-Oct-01 08:11 257 14.4
2020-Oct-01 08:01 257 14.4
2020-Oct-01 07:51 257 14.4
2020-Oct-01 07:41 257 14.4
2020-Oct-01 07:31 257 14.4
2020-Oct-01 07:21 257 15.0
2020-Oct-01 07:11 257 15.0
2020-Oct-01 07:01 346 15.0
2020-Oct-01 06:51 304 15.0
2020-Oct-01 06:41 304 15.0
2020-Oct-01 06:31 304 15.0
2020-Oct-01 06:21 304 15.0
2020-Oct-01 06:10 304 15.6
2020-Oct-01 06:00 304 15.6
2020-Oct-01 05:50 265 15.6
2020-Oct-01 05:40 273 15.6
2020-Oct-01 05:30 057 15.6
2020-Oct-01 05:19 057 15.6
2020-Oct-01 05:09 057 15.6
2020-Oct-01 04:59 055 15.6
2020-Oct-01 04:50 047 15.0
2020-Oct-01 04:40 055 15.0
2020-Oct-01 04:30 055 15.0
2020-Oct-01 04:20 055 15.0
2020-Oct-01 04:09 102 14.4
2020-Oct-01 03:59 102 14.4
2020-Oct-01 03:49 207 14.4
2020-Oct-01 03:39 207 14.4
2020-Oct-01 03:29 207 14.4
2020-Oct-01 03:19 101 14.4
2020-Oct-01 03:09 101 14.4
2020-Oct-01 02:58 101 14.4
2020-Oct-01 02:48 101 14.4
2020-Oct-01 02:38 109 14.4
2020-Oct-01 02:28 322 14.4
2020-Oct-01 02:18 321 14.4
2020-Oct-01 02:08 346 14.4
2020-Oct-01 01:57 346 14.4
2020-Oct-01 01:47 346 14.4
2020-Oct-01 01:37 346 14.4
2020-Oct-01 01:27 346 14.4
2020-Oct-01 01:17 346 14.4
2020-Oct-01 01:07 346 14.4
2020-Oct-01 00:57 063 14.4
2020-Oct-01 00:47 063 14.4
2020-Oct-01 00:37 063 14.4
2020-Oct-01 00:28 063 14.4
2020-Oct-01 00:18 063 15.0
2020-Oct-01 00:08 063 15.0
2020-Sep-30 23:58 063 15.0
2020-Sep-30 23:48 063 15.6
2020-Sep-30 23:38 063 15.6
2020-Sep-30 23:28 063 16.1
2020-Sep-30 23:18 096 16.1
2020-Sep-30 23:08 298 16.1
2020-Sep-30 22:58 298 16.7
2020-Sep-30 22:48 296 17.2
2020-Sep-30 22:38 296 17.2
2020-Sep-30 22:27 296 17.8
2020-Sep-30 22:18 288 17.8
2020-Sep-30 22:07 263 18.3
2020-Sep-30 21:57 329 18.3
2020-Sep-30 21:46 326 18.3
2020-Sep-30 21:37 030 18.9
2020-Sep-30 21:27 035 18.9
2020-Sep-30 21:17 275 19.4
2020-Sep-30 21:08 263 19.4
2020-Sep-30 20:57 298 20.0
2020-Sep-30 20:47 247 20.0
2020-Sep-30 20:37 267 0 gusting 2 20.0
2020-Sep-30 20:27 272 0 gusting 3 20.0
2020-Sep-30 20:18 243 0 gusting 4 20.6
2020-Sep-30 20:07 071 20.6
2020-Sep-30 19:58 296 0 gusting 7 21.1
2020-Sep-30 19:47 269 21.1
2020-Sep-30 19:37 262 21.7
2020-Sep-30 19:27 297 21.7
2020-Sep-30 19:17 275 22.2
2020-Sep-30 19:08 286 22.2
2020-Sep-30 18:57 282 0 gusting 2 22.2
2020-Sep-30 18:48 275 22.2
2020-Sep-30 18:37 286 0 gusting 3 22.2
2020-Sep-30 18:27 311 0 gusting 3 22.8
2020-Sep-30 18:17 297 0 gusting 1 22.2
2020-Sep-30 18:06 294 0 gusting 3 22.2
2020-Sep-30 17:56 063 0 gusting 3 22.2
2020-Sep-30 17:45 293 0 gusting 3 22.8
2020-Sep-30 17:35 280 0 gusting 3 22.2
2020-Sep-30 17:25 196 1 gusting 8 21.7
2020-Sep-30 17:15 262 0 gusting 8 22.2
2020-Sep-30 17:06 296 0 gusting 5 22.8
2020-Sep-30 16:55 279 0 gusting 3 22.2
2020-Sep-30 16:45 280 0 gusting 8 21.7
2020-Sep-30 16:34 298 1 gusting 8 21.1
2020-Sep-30 16:24 294 1 gusting 3 21.7
2020-Sep-30 16:14 246 0 gusting 4 21.7
2020-Sep-30 16:03 282 0 gusting 4 21.1
2020-Sep-30 15:53 278 0 gusting 4 21.1
2020-Sep-30 15:43 276 20.6
2020-Sep-30 15:33 298 20.0
2020-Sep-30 15:23 227 19.4
2020-Sep-30 15:13 330 0 gusting 7 19.4
2020-Sep-30 15:02 293 19.4
2020-Sep-30 14:52 318 0 gusting 2 19.4
2020-Sep-30 14:42 255 0 gusting 2 20.0
2020-Sep-30 14:32 031 20.0
2020-Sep-30 14:22 257 0 gusting 2 20.0
2020-Sep-30 14:13 318 20.6
2020-Sep-30 14:03 217 20.6
2020-Sep-30 13:53 315 20.6
2020-Sep-30 13:43 317 20.6
2020-Sep-30 13:33 259 0 gusting 3 20.6
2020-Sep-30 13:23 340 20.6
2020-Sep-30 13:13 317 20.6
2020-Sep-30 13:03 326 0 gusting 8 20.6
2020-Sep-30 12:53 284 0 gusting 2 21.1
2020-Sep-30 12:43 275 0 gusting 2 21.1
2020-Sep-30 12:33 252 0 gusting 2 21.1
2020-Sep-30 12:23 300 0 gusting 4 21.7
2020-Sep-30 12:13 273 21.7
2020-Sep-30 12:02 177 0 gusting 7 21.7
2020-Sep-30 11:53 309 0 gusting 3 21.7
2020-Sep-30 11:42 138 0 gusting 4 21.7
2020-Sep-30 11:33 138 0 gusting 4 21.7
2020-Sep-30 11:22 136 0 gusting 4 21.7
2020-Sep-30 11:12 076 0 gusting 3 21.7
2020-Sep-30 11:02 175 0 gusting 3 21.7
2020-Sep-30 10:52 148 0 gusting 2 21.7
2020-Sep-30 10:42 280 0 gusting 5 21.7
2020-Sep-30 10:32 212 0 gusting 5 21.7
2020-Sep-30 10:23 158 0 gusting 3 21.7
2020-Sep-30 10:12 217 0 gusting 3 21.7
2020-Sep-30 10:02 097 21.7
2020-Sep-30 09:52 138 0 gusting 9 21.7
2020-Sep-30 09:42 315 0 gusting 6 21.7
2020-Sep-30 09:32 142 0 gusting 4 21.7
2020-Sep-30 09:21 145 0 gusting 3 21.7
2020-Sep-30 09:11 115 0 gusting 3 21.7
2020-Sep-30 09:01 132 0 gusting 3 21.7
2020-Sep-30 08:51 114 0 gusting 5 21.7
2020-Sep-30 08:42 207 0 gusting 5 21.7
2020-Sep-30 08:32 104 0 gusting 4 21.7
2020-Sep-30 08:22 112 0 gusting 4 21.7
2020-Sep-30 08:11 153 0 gusting 2 21.7
2020-Sep-30 08:02 133 0 gusting 3 21.7
2020-Sep-30 07:51 145 0 gusting 3 21.7
2020-Sep-30 07:41 161 21.7
2020-Sep-30 07:31 133 21.7
2020-Sep-30 07:22 137 0 gusting 7 21.7
2020-Sep-30 07:11 134 0 gusting 4 21.7
2020-Sep-30 07:01 109 0 gusting 4 21.1
2020-Sep-30 06:50 161 0 gusting 4 21.1
2020-Sep-30 06:41 128 0 gusting 4 21.7
2020-Sep-30 06:30 275 0 gusting 6 21.7
2020-Sep-30 06:20 111 0 gusting 6 21.7
2020-Sep-30 06:10 137 21.7
2020-Sep-30 06:00 163 21.7
2020-Sep-30 05:50 108 21.7
2020-Sep-30 05:40 119 0 gusting 8 21.7
2020-Sep-30 05:30 100 21.7
2020-Sep-30 05:19 151 21.7
2020-Sep-30 05:09 118 21.7
2020-Sep-30 04:59 118 21.7
2020-Sep-30 04:49 172 21.7
2020-Sep-30 04:39 082 21.7
2020-Sep-30 04:29 099 21.7
2020-Sep-30 04:19 091 21.7
2020-Sep-30 04:09 116 21.7
2020-Sep-30 03:59 148 21.7
2020-Sep-30 03:49 155 21.7
2020-Sep-30 03:39 201 21.7
2020-Sep-30 03:29 107 21.7
2020-Sep-30 03:19 107 21.7
2020-Sep-30 03:09 107 21.7
2020-Sep-30 02:59 157 21.1
2020-Sep-30 02:49 157 21.1
2020-Sep-30 02:39 157 21.1
2020-Sep-30 02:29 170 21.1
2020-Sep-30 02:19 134 21.1
2020-Sep-30 02:09 134 21.1
2020-Sep-30 01:59 134 21.1
2020-Sep-30 01:48 134 21.1
2020-Sep-30 01:38 148 21.1
2020-Sep-30 01:28 148 21.1
2020-Sep-30 01:18 148 21.1
2020-Sep-30 01:08 148 21.1
2020-Sep-30 00:58 121 21.1
2020-Sep-30 00:48 117 20.6
2020-Sep-30 00:38 118 20.6
2020-Sep-30 00:28 121 20.0
2020-Sep-30 00:18 121 20.0
2020-Sep-30 00:07 121 20.0
2020-Sep-29 23:57 121 20.0
2020-Sep-29 23:47 121 20.0
2020-Sep-29 23:36 121 20.0
2020-Sep-29 23:27 121 20.0
2020-Sep-29 23:16 121 20.0
2020-Sep-29 23:06 121 20.0
2020-Sep-29 22:56 122 20.0
2020-Sep-29 22:46 122 20.0
2020-Sep-29 22:36 122 20.6
2020-Sep-29 22:26 122 20.6
2020-Sep-29 22:16 122 20.6
2020-Sep-29 22:06 122 21.1
2020-Sep-29 21:56 121 21.1
2020-Sep-29 21:46 121 21.7
2020-Sep-29 21:36 121 0 gusting 1 21.7
2020-Sep-29 21:26 150 21.7
2020-Sep-29 21:16 150 21.7
2020-Sep-29 21:07 153 21.7
2020-Sep-29 20:57 154 21.7
2020-Sep-29 20:46 154 21.7
2020-Sep-29 20:37 154 21.7
2020-Sep-29 20:26 103 22.2
2020-Sep-29 20:16 105 22.2
2020-Sep-29 20:06 146 22.8
2020-Sep-29 19:57 075 22.8
2020-Sep-29 19:47 011 22.8
2020-Sep-29 19:36 124 22.8
2020-Sep-29 19:26 142 23.3
2020-Sep-29 19:16 113 23.3
2020-Sep-29 19:06 141 23.3
2020-Sep-29 18:56 115 23.3
2020-Sep-29 18:46 121 23.3
2020-Sep-29 18:35 190 22.8
2020-Sep-29 18:25 105 23.3
2020-Sep-29 18:15 126 23.3
2020-Sep-29 18:05 159 22.8
2020-Sep-29 17:54 119 22.8
2020-Sep-29 17:44 073 22.8
2020-Sep-29 17:34 096 0 gusting 2 22.8
2020-Sep-29 17:24 123 22.8
2020-Sep-29 17:13 294 22.2
2020-Sep-29 17:03 126 22.2
2020-Sep-29 16:53 105 22.2
2020-Sep-29 16:43 088 22.2
2020-Sep-29 16:33 088 22.2
2020-Sep-29 16:24 128 22.2
2020-Sep-29 16:14 041 22.8
2020-Sep-29 16:03 152 22.8
2020-Sep-29 15:53 065 22.2
2020-Sep-29 15:44 065 22.2
2020-Sep-29 15:34 057 21.7
2020-Sep-29 15:23 047 22.2
2020-Sep-29 15:13 077 22.2
2020-Sep-29 15:02 083 22.8